HB0PJ-13 Weather Reports


Display with metric or nautical units.
time (UTC)temp
F
wind
direction
speed
MPH
gust
MPH
rain 1hr
in
rain 24hr
in
rain mn
in
humidity
%
barometer
mb
20260507162005 64 0.0 0.0 0.00 0.00 0.00 51 958.0
20260507161605 64 0.0 0.0 0.00 0.00 0.00 52 958.0
20260507161205 64 0.0 0.0 0.00 0.00 0.00 51 958.0
20260507161005 65 0.0 0.0 0.00 0.00 0.00 53 958.0
20260507160805 64 0.0 0.0 0.00 0.00 0.00 53 958.0
20260507160405 64 0.0 0.0 0.00 0.00 0.00 52 958.1
20260507160205 63 0.0 0.0 0.00 0.00 0.00 56 958.1
20260507160005 63 0.0 0.0 0.00 0.00 0.00 57 958.1
20260507155605 62 0.0 0.0 0.00 0.00 0.00 58 958.2
20260507155005 61 0.0 0.0 0.00 0.00 0.00 58 958.0
20260507154605 61 0.0 0.0 0.00 0.00 0.00 59 958.1
20260507154405 61 0.0 0.0 0.00 0.00 0.00 59 958.1
20260507153805 61 0.0 0.0 0.00 0.00 0.00 60 958.1
20260507153605 60 0.0 0.0 0.00 0.00 0.00 59 958.1
20260507153405 60 0.0 0.0 0.00 0.00 0.00 61 958.1
20260507153205 60 0.0 0.0 0.00 0.00 0.00 59 958.0
20260507153005 60 0.0 0.0 0.00 0.00 0.00 59 958.1
20260507152805 61 0.0 0.0 0.00 0.00 0.00 59 958.1
20260507152605 61 0.0 0.0 0.00 0.00 0.00 57 958.1
20260507152205 61 0.0 0.0 0.00 0.00 0.00 57 958.0
20260507152005 61 0.0 0.0 0.00 0.00 0.00 57 958.0
20260507151805 61 0.0 0.0 0.00 0.00 0.00 56 958.0
20260507151605 61 0.0 0.0 0.00 0.00 0.00 56 958.0
20260507151405 61 0.0 0.0 0.00 0.00 0.00 55 957.9
20260507151205 61 0.0 0.0 0.00 0.00 0.00 54 957.9
20260507151005 61 0.0 0.0 0.00 0.00 0.00 54 958.0
20260507150605 61 0.0 0.0 0.00 0.00 0.00 54 957.9
20260507150205 61 0.0 0.0 0.00 0.00 0.00 53 957.9
20260507150006 62 0.0 0.0 0.00 0.00 0.00 53 957.9
20260507145805 62 0.0 0.0 0.00 0.00 0.00 54 957.9
20260507145605 62 0.0 0.0 0.00 0.00 0.00 54 957.9
20260507145405 62 0.0 0.0 0.00 0.00 0.00 54 957.9
20260507145205 62 0.0 0.0 0.00 0.00 0.00 53 957.8
20260507144805 62 0.0 0.0 0.00 0.00 0.00 52 957.8
20260507144605 62 0.0 0.0 0.00 0.00 0.00 52 957.8
20260507144405 63 0.0 0.0 0.00 0.00 0.00 52 957.8
20260507144205 63 0.0 0.0 0.00 0.00 0.00 51 957.8
20260507143805 63 0.0 0.0 0.00 0.00 0.00 51 957.8
20260507143605 62 0.0 0.0 0.00 0.00 0.00 51 957.8
20260507143405 62 0.0 0.0 0.00 0.00 0.00 51 957.8
20260507143205 63 0.0 0.0 0.00 0.00 0.00 51 957.8
20260507142605 63 0.0 0.0 0.00 0.00 0.00 50 957.7
20260507142405 63 0.0 0.0 0.00 0.00 0.00 50 957.7
20260507141805 63 0.0 0.0 0.00 0.00 0.00 50 957.7
20260507140806 64 0.0 0.0 0.00 0.00 0.00 50 957.7
20260507135805 63 0.0 0.0 0.00 0.00 0.00 52 957.8
20260507135606 63 0.0 0.0 0.00 0.00 0.00 52 957.8
20260507134605 64 0.0 0.0 0.00 0.00 0.00 50 957.7
20260507133805 64 0.0 0.0 0.00 0.00 0.00 50 957.8
20260507133405 64 0.0 0.0 0.00 0.00 0.00 49 957.8
20260507133206 64 0.0 0.0 0.00 0.00 0.00 50 957.7
20260507132605 64 0.0 0.0 0.00 0.00 0.00 49 957.7
20260507131805 65 0.0 0.0 0.00 0.00 0.00 49 957.7
20260507131406 65 0.0 0.0 0.00 0.00 0.00 49 957.7
20260507131205 65 0.0 0.0 0.00 0.00 0.00 49 957.7
20260507130605 64 0.0 0.0 0.00 0.00 0.00 49 957.6
20260507130405 64 0.0 0.0 0.00 0.00 0.00 50 957.7
20260507125805 64 0.0 0.0 0.00 0.00 0.00 50 957.8
20260507124405 63 0.0 0.0 0.00 0.00 0.00 49 957.8
20260507123406 63 0.0 0.0 0.00 0.00 0.00 50 957.7
20260507122605 62 0.0 0.0 0.00 0.00 0.00 50 957.7
20260507121805 63 0.0 0.0 0.00 0.00 0.00 51 957.6
20260507121205 63 0.0 0.0 0.00 0.00 0.00 51 957.6
20260507120806 63 0.0 0.0 0.00 0.00 0.00 51 957.7
20260507120605 63 0.0 0.0 0.00 0.00 0.00 51 957.7
20260507120405 63 0.0 0.0 0.00 0.00 0.00 50 957.6
20260507120006 63 0.0 0.0 0.00 0.00 0.00 51 957.7
20260507115405 63 0.0 0.0 0.00 0.00 0.00 50 957.7
20260507114205 65 0.0 0.0 0.00 0.00 0.00 47 957.5
20260507113405 65 0.0 0.0 0.00 0.00 0.00 46 957.5
20260507112205 65 0.0 0.0 0.00 0.00 0.00 48 957.7
20260507111805 64 0.0 0.0 0.00 0.00 0.00 48 957.7
20260507111005 64 0.0 0.0 0.00 0.00 0.00 48 957.7
20260507110605 64 0.0 0.0 0.00 0.00 0.00 48 957.7
20260507105005 63 0.0 0.0 0.00 0.00 0.00 51 957.9
20260507104805 62 0.0 0.0 0.00 0.00 0.00 50 958.0
20260507104606 62 0.0 0.0 0.00 0.00 0.00 50 958.0
20260507104205 62 0.0 0.0 0.00 0.00 0.00 50 957.9
20260507104005 62 0.0 0.0 0.00 0.00 0.00 49 958.1
20260507103006 61 0.0 0.0 0.00 0.00 0.00 54 958.2
20260507102605 61 0.0 0.0 0.00 0.00 0.00 54 958.1
20260507101605 61 0.0 0.0 0.00 0.00 0.00 54 958.2
20260507101205 61 0.0 0.0 0.00 0.00 0.00 54 958.3
20260507100805 62 0.0 0.0 0.00 0.00 0.00 54 958.4
20260507100406 62 0.0 0.0 0.00 0.00 0.00 53 958.4
20260507100206 62 0.0 0.0 0.00 0.00 0.00 54 958.3
20260507100006 62 0.0 0.0 0.00 0.00 0.00 55 958.4
20260507095406 61 0.0 0.0 0.00 0.00 0.00 53 958.4
20260507095206 61 0.0 0.0 0.00 0.00 0.00 55 958.5
20260507094806 61 0.0 0.0 0.00 0.00 0.00 56 958.5
20260507094206 61 0.0 0.0 0.00 0.00 0.00 57 958.4
20260507093806 61 0.0 0.0 0.00 0.00 0.00 58 958.5
20260507093606 61 0.0 0.0 0.00 0.00 0.00 59 958.5
20260507093206 61 0.0 0.0 0.00 0.00 0.00 59 958.5
20260507093006 61 0.0 0.0 0.00 0.00 0.00 59 958.5
20260507092806 61 0.0 0.0 0.00 0.00 0.00 59 958.5
20260507092206 61 0.0 0.0 0.00 0.00 0.00 60 958.5
20260507092006 60 0.0 0.0 0.00 0.00 0.00 59 958.4
20260507091806 60 0.0 0.0 0.00 0.00 0.00 59 958.4
20260507091606 60 0.0 0.0 0.00 0.00 0.00 60 958.4
20260507091406 60 0.0 0.0 0.00 0.00 0.00 60 958.4
20260507091206 60 0.0 0.0 0.00 0.00 0.00 60 958.3
20260507090206 60 0.0 0.0 0.00 0.00 0.00 60 958.3
20260507085806 60 0.0 0.0 0.00 0.00 0.00 60 958.3
20260507085606 60 0.0 0.0 0.00 0.00 0.00 60 958.3
20260507085406 60 0.0 0.0 0.00 0.00 0.00 59 958.3
20260507085006 60 0.0 0.0 0.00 0.00 0.00 57 958.3
20260507084606 60 0.0 0.0 0.00 0.00 0.00 58 958.3
20260507084406 60 0.0 0.0 0.00 0.00 0.00 59 958.2
20260507083806 60 0.0 0.0 0.00 0.00 0.00 59 958.2
20260507083606 60 0.0 0.0 0.00 0.00 0.00 60 958.2
20260507083406 59 0.0 0.0 0.00 0.00 0.00 60 958.2
20260507083206 59 0.0 0.0 0.00 0.00 0.00 59 958.3
20260507083006 59 0.0 0.0 0.00 0.00 0.00 60 958.3
20260507082406 59 0.0 0.0 0.00 0.00 0.00 61 958.3
20260507081806 59 0.0 0.0 0.00 0.00 0.00 60 958.3
20260507081206 59 0.0 0.0 0.00 0.00 0.00 60 958.4
20260507080606 59 0.0 0.0 0.00 0.00 0.00 62 958.3
20260507080206 59 0.0 0.0 0.00 0.00 0.00 62 958.4
20260507080006 59 0.0 0.0 0.00 0.00 0.00 62 958.3
20260507075806 58 0.0 0.0 0.00 0.00 0.00 63 958.4
20260507075606 58 0.0 0.0 0.00 0.00 0.00 64 958.4
20260507074806 58 0.0 0.0 0.00 0.00 0.00 64 958.4
20260507074606 58 0.0 0.0 0.00 0.00 0.00 65 958.3
20260507074206 57 0.0 0.0 0.00 0.00 0.00 66 958.3
20260507073406 57 0.0 0.0 0.00 0.00 0.00 67 958.3
20260507073206 56 0.0 0.0 0.00 0.00 0.00 67 958.4
20260507073006 56 0.0 0.0 0.00 0.00 0.00 68 958.3
20260507072806 56 0.0 0.0 0.00 0.00 0.00 68 958.4
20260507072606 56 0.0 0.0 0.00 0.00 0.00 69 958.4
20260507072406 56 0.0 0.0 0.00 0.00 0.00 69 958.4
20260507072206 56 0.0 0.0 0.00 0.00 0.00 69 958.4
20260507071806 55 0.0 0.0 0.00 0.00 0.00 69 958.4
20260507071606 55 0.0 0.0 0.00 0.00 0.00 69 958.4
20260507071406 55 0.0 0.0 0.00 0.00 0.00 69 958.5
20260507071006 55 0.0 0.0 0.00 0.00 0.00 69 958.5
20260507070806 55 0.0 0.0 0.00 0.00 0.00 69 958.5
20260507070606 55 0.0 0.0 0.00 0.00 0.00 69 958.5
20260507070206 55 0.0 0.0 0.00 0.00 0.00 69 958.5
20260507070010 55 0.0 0.0 0.00 0.00 0.00 69 958.4
20260507065606 55 0.0 0.0 0.00 0.00 0.00 69 958.4
20260507065206 55 0.0 0.0 0.00 0.00 0.00 70 958.4
20260507065006 55 0.0 0.0 0.00 0.00 0.00 70 958.3
20260507064806 55 0.0 0.0 0.00 0.00 0.00 70 958.3
20260507064606 55 0.0 0.0 0.00 0.00 0.00 70 958.3
20260507064206 55 0.0 0.0 0.00 0.00 0.00 70 958.2
20260507064006 55 0.0 0.0 0.00 0.00 0.00 70 958.2
20260507063806 55 0.0 0.0 0.00 0.00 0.00 70 958.2
20260507063606 55 0.0 0.0 0.00 0.00 0.00 70 958.2
20260507063406 55 0.0 0.0 0.00 0.00 0.00 70 958.1
20260507063206 55 0.0 0.0 0.00 0.00 0.00 70 958.1
20260507063006 54 0.0 0.0 0.00 0.00 0.00 70 958.1
20260507062806 54 0.0 0.0 0.00 0.00 0.00 70 958.1
20260507062406 54 0.0 0.0 0.00 0.00 0.00 70 958.1
20260507062206 54 0.0 0.0 0.00 0.00 0.00 70 958.0
20260507062006 54 0.0 0.0 0.00 0.00 0.00 71 958.0
20260507061806 54 0.0 0.0 0.00 0.00 0.00 71 958.1
20260507061406 54 0.0 0.0 0.00 0.00 0.00 71 958.0
20260507061206 54 0.0 0.0 0.00 0.00 0.00 71 958.0
20260507060806 54 0.0 0.0 0.00 0.00 0.00 71 957.9
20260507060606 54 0.0 0.0 0.00 0.00 0.00 71 958.0
20260507060406 54 0.0 0.0 0.00 0.00 0.00 71 958.0
20260507060206 54 0.0 0.0 0.00 0.00 0.00 71 957.9
20260507055806 54 0.0 0.0 0.00 0.00 0.00 71 958.0
20260507055606 54 0.0 0.0 0.00 0.00 0.00 71 957.9
20260507055406 54 0.0 0.0 0.00 0.00 0.00 71 957.9
20260507055206 54 0.0 0.0 0.00 0.00 0.00 71 957.8
20260507055006 54 0.0 0.0 0.00 0.00 0.00 72 957.9
20260507054806 54 0.0 0.0 0.00 0.00 0.00 72 957.8
20260507054606 54 0.0 0.0 0.00 0.00 0.00 72 957.9
20260507054006 53 0.0 0.0 0.00 0.00 0.00 72 957.8
20260507053806 53 0.0 0.0 0.00 0.00 0.00 72 957.7
20260507053606 53 0.0 0.0 0.00 0.00 0.00 71 957.8
20260507053406 54 0.0 0.0 0.00 0.00 0.00 71 957.8
20260507053206 53 0.0 0.0 0.00 0.00 0.00 71 957.7
20260507052806 53 0.0 0.0 0.00 0.00 0.00 71 957.6
20260507052606 53 0.0 0.0 0.00 0.00 0.00 71 957.6
20260507052406 53 0.0 0.0 0.00 0.00 0.00 71 957.6
20260507052206 53 0.0 0.0 0.00 0.00 0.00 71 957.6
20260507052006 53 0.0 0.0 0.00 0.00 0.00 71 957.6
20260507051606 53 0.0 0.0 0.00 0.00 0.00 71 957.6
20260507051406 53 0.0 0.0 0.00 0.00 0.00 71 957.6
20260507051006 53 0.0 0.0 0.00 0.00 0.00 71 957.6
20260507050806 53 0.0 0.0 0.00 0.00 0.00 71 957.5
20260507050606 53 0.0 0.0 0.00 0.00 0.00 71 957.5
20260507050406 53 0.0 0.0 0.00 0.00 0.00 72 957.4
20260507050206 53 0.0 0.0 0.00 0.00 0.00 71 957.4
20260507050006 53 0.0 0.0 0.00 0.00 0.00 71 957.3
20260507045806 53 0.0 0.0 0.00 0.00 0.00 71 957.3
20260507045606 53 0.0 0.0 0.00 0.00 0.00 71 957.3
20260507045206 53 0.0 0.0 0.00 0.00 0.00 71 957.3
20260507045006 53 0.0 0.0 0.00 0.00 0.00 72 957.3
20260507044606 53 0.0 0.0 0.00 0.00 0.00 71 957.3
20260507044406 53 0.0 0.0 0.00 0.00 0.00 71 957.3
20260507044206 53 0.0 0.0 0.00 0.00 0.00 71 957.3
20260507044006 53 0.0 0.0 0.00 0.00 0.00 71 957.2
20260507043606 53 0.0 0.0 0.00 0.00 0.00 70 957.1
20260507043406 54 0.0 0.0 0.00 0.00 0.00 70 957.1
20260507043206 54 0.0 0.0 0.00 0.00 0.00 70 957.1
20260507043006 54 0.0 0.0 0.00 0.00 0.00 70 957.0
20260507042806 53 0.0 0.0 0.00 0.00 0.00 71 957.0
20260507042606 53 0.0 0.0 0.00 0.00 0.00 71 957.0
20260507042406 53 0.0 0.0 0.00 0.00 0.00 71 957.0
20260507042206 53 0.0 0.0 0.00 0.00 0.00 70 957.0
20260507042006 53 0.0 0.0 0.00 0.00 0.00 70 956.9
20260507041606 53 0.0 0.0 0.00 0.00 0.00 70 956.9
20260507041406 53 0.0 0.0 0.00 0.00 0.00 70 956.9
20260507041206 53 0.0 0.0 0.00 0.00 0.00 70 956.9
20260507040806 53 0.0 0.0 0.00 0.00 0.00 69 956.9
20260507040606 53 0.0 0.0 0.00 0.00 0.00 70 956.9
20260507040406 53 0.0 0.0 0.00 0.00 0.00 70 956.8
20260507040206 53 0.0 0.0 0.00 0.00 0.00 70 956.8
20260507040006 53 0.0 0.0 0.00 0.00 0.00 70 956.8
20260507035806 53 0.0 0.0 0.00 0.00 0.00 70 956.9
20260507035606 53 0.0 0.0 0.00 0.00 0.00 70 956.8
20260507035406 53 0.0 0.0 0.00 0.00 0.00 70 956.9
20260507035206 53 0.0 0.0 0.00 0.00 0.00 70 956.9
20260507035006 53 0.0 0.0 0.00 0.00 0.00 71 956.9
20260507034606 53 0.0 0.0 0.00 0.00 0.00 70 957.0
20260507034406 53 0.0 0.0 0.00 0.00 0.00 70 956.9
20260507034206 53 0.0 0.0 0.00 0.00 0.00 70 956.9
20260507034006 53 0.0 0.0 0.00 0.00 0.00 70 956.9
20260507033806 53 0.0 0.0 0.00 0.00 0.00 71 956.8
20260507033406 53 0.0 0.0 0.00 0.00 0.00 71 956.8
20260507033206 53 0.0 0.0 0.00 0.00 0.00 70 956.7
20260507033006 53 0.0 0.0 0.00 0.00 0.00 70 956.7
20260507032806 53 0.0 0.0 0.00 0.00 0.00 70 956.7
20260507032406 54 0.0 0.0 0.00 0.00 0.00 70 956.6
20260507032206 54 0.0 0.0 0.00 0.00 0.00 70 956.6
20260507032006 54 0.0 0.0 0.00 0.00 0.00 70 956.5
20260507031606 54 0.0 0.0 0.00 0.00 0.00 70 956.5
20260507031406 54 0.0 0.0 0.00 0.00 0.00 71 956.5
20260507031206 54 0.0 0.0 0.00 0.00 0.00 71 956.5
20260507030806 54 0.0 0.0 0.00 0.00 0.00 71 956.5
20260507030606 54 0.0 0.0 0.00 0.00 0.00 72 956.5
20260507030406 54 0.0 0.0 0.00 0.00 0.00 71 956.6
20260507030006 54 0.0 0.0 0.00 0.00 0.00 71 956.6
20260507025806 54 0.0 0.0 0.00 0.00 0.00 71 956.5
20260507025406 54 0.0 0.0 0.00 0.00 0.00 71 956.6
20260507025206 54 0.0 0.0 0.00 0.00 0.00 71 956.5
20260507025006 54 0.0 0.0 0.00 0.00 0.00 71 956.5
20260507024606 54 0.0 0.0 0.00 0.00 0.00 71 956.5
20260507024406 54 0.0 0.0 0.00 0.00 0.00 70 956.6
20260507024206 54 0.0 0.0 0.00 0.00 0.00 71 956.5
20260507024006 54 0.0 0.0 0.00 0.00 0.00 71 956.5
20260507023806 53 0.0 0.0 0.00 0.00 0.00 71 956.6
20260507023409 54 0.0 0.0 0.00 0.00 0.00 70 956.5
20260507023206 54 0.0 0.0 0.00 0.00 0.00 70 956.5
20260507023006 54 0.0 0.0 0.00 0.00 0.00 70 956.5
20260507022806 54 0.0 0.0 0.00 0.00 0.00 69 956.5
20260507022606 54 0.0 0.0 0.00 0.00 0.00 69 956.5
20260507022406 54 0.0 0.0 0.00 0.00 0.00 69 956.4
20260507022206 54 0.0 0.0 0.00 0.00 0.00 69 956.5
20260507021806 54 0.0 0.0 0.00 0.00 0.00 69 956.5
20260507021606 54 0.0 0.0 0.00 0.00 0.00 69 956.5
20260507021206 54 0.0 0.0 0.00 0.00 0.00 69 956.3
20260507021006 54 0.0 0.0 0.00 0.00 0.00 69 956.4
20260507020806 54 0.0 0.0 0.00 0.00 0.00 69 956.4
20260507020606 54 0.0 0.0 0.00 0.00 0.00 69 956.4
20260507020206 54 0.0 0.0 0.00 0.00 0.00 69 956.4
20260507020006 54 0.0 0.0 0.00 0.00 0.00 69 956.4
20260507015806 54 0.0 0.0 0.00 0.00 0.00 69 956.4
20260507015606 54 0.0 0.0 0.00 0.00 0.00 69 956.3
20260507015406 54 0.0 0.0 0.00 0.00 0.00 69 956.4
20260507015006 54 0.0 0.0 0.00 0.00 0.00 69 956.3
20260507014606 54 0.0 0.0 0.00 0.00 0.00 69 956.3
20260507014206 54 0.0 0.0 0.00 0.00 0.00 69 956.2
20260507014006 54 0.0 0.0 0.00 0.00 0.00 69 956.2
20260507013806 54 0.0 0.0 0.00 0.00 0.00 69 956.2
20260507013606 54 0.0 0.0 0.00 0.00 0.00 69 956.2
20260507013406 54 0.0 0.0 0.00 0.00 0.00 69 956.2
20260507013206 54 0.0 0.0 0.00 0.00 0.00 70 956.2
20260507012806 54 0.0 0.0 0.00 0.00 0.00 70 956.2
20260507012606 54 0.0 0.0 0.00 0.00 0.00 70 956.2
20260507012406 54 0.0 0.0 0.00 0.00 0.00 70 956.2
20260507012006 54 0.0 0.0 0.00 0.00 0.00 70 956.1
20260507011806 54 0.0 0.0 0.00 0.00 0.00 70 956.1
20260507011606 54 0.0 0.0 0.00 0.00 0.00 70 956.1
20260507011406 54 0.0 0.0 0.00 0.00 0.00 69 956.1
20260507011206 54 0.0 0.0 0.00 0.00 0.00 69 956.0
20260507011006 54 0.0 0.0 0.00 0.00 0.00 69 956.0
20260507010806 54 0.0 0.0 0.00 0.00 0.00 70 956.0
20260507010406 54 0.0 0.0 0.00 0.00 0.00 70 956.0
20260507010006 54 0.0 0.0 0.00 0.00 0.00 70 955.9
20260507005806 54 0.0 0.0 0.00 0.00 0.00 70 956.0
20260507005606 55 0.0 0.0 0.00 0.00 0.00 70 956.0
20260507005406 54 0.0 0.0 0.00 0.00 0.00 70 956.0
20260507005006 54 0.0 0.0 0.00 0.00 0.00 70 956.0
20260507004806 55 0.0 0.0 0.00 0.00 0.00 70 956.0
20260507004406 55 0.0 0.0 0.00 0.00 0.00 70 956.0
20260507004206 55 0.0 0.0 0.00 0.00 0.00 69 956.0
20260507004006 55 0.0 0.0 0.00 0.00 0.00 69 956.0
20260507003806 55 0.0 0.0 0.00 0.00 0.00 69 956.0
20260507003606 55 0.0 0.0 0.00 0.00 0.00 69 956.0
20260507003006 55 0.0 0.0 0.00 0.00 0.00 70 956.1
20260507002806 55 0.0 0.0 0.00 0.00 0.00 70 956.1
20260507002606 55 0.0 0.0 0.00 0.00 0.00 70 956.1
20260507002406 55 0.0 0.0 0.00 0.00 0.00 70 956.0
20260507002206 55 0.0 0.0 0.00 0.00 0.00 70 956.0
20260507001806 55 0.0 0.0 0.00 0.00 0.00 70 955.8
20260507001606 55 0.0 0.0 0.00 0.00 0.00 70 955.9
20260507001406 55 0.0 0.0 0.00 0.00 0.00 70 955.9
20260507001011 54 0.0 0.0 0.00 0.00 0.00 70 955.8
20260507000406 55 0.0 0.0 0.00 0.00 0.00 70 955.8
20260507000006 55 0.0 0.0 0.00 0.00 0.00 70 955.8
20260506235806 55 0.0 0.0 0.00 0.00 0.00 70 955.8
20260506235606 55 0.0 0.0 0.00 0.00 0.00 70 955.9
20260506235406 55 0.0 0.0 0.00 0.00 0.00 70 955.9
20260506235206 55 0.0 0.0 0.00 0.00 0.00 70 956.0
20260506235006 55 0.0 0.0 0.00 0.00 0.00 71 955.9
20260506234806 54 0.0 0.0 0.00 0.00 0.00 71 956.0
20260506234406 54 0.0 0.0 0.00 0.00 0.00 70 955.9
20260506234206 54 0.0 0.0 0.00 0.00 0.00 71 955.9
20260506234006 54 0.0 0.0 0.00 0.00 0.00 70 955.9
20260506233806 54 0.0 0.0 0.00 0.00 0.00 70 955.8
20260506233606 54 0.0 0.0 0.00 0.00 0.00 70 955.9
20260506233406 54 0.0 0.0 0.00 0.00 0.00 70 955.8
20260506233006 54 0.0 0.0 0.00 0.00 0.00 70 955.8
20260506232806 55 0.0 0.0 0.00 0.00 0.00 70 955.9
20260506232606 54 0.0 0.0 0.00 0.00 0.00 70 955.8
20260506232406 54 0.0 0.0 0.00 0.00 0.00 70 955.7
20260506232206 54 0.0 0.0 0.00 0.00 0.00 70 955.8
20260506232006 54 0.0 0.0 0.00 0.00 0.00 71 955.7
20260506231806 54 0.0 0.0 0.00 0.00 0.00 71 955.8
20260506231606 54 0.0 0.0 0.00 0.00 0.00 71 955.8
20260506231206 54 0.0 0.0 0.00 0.00 0.00 71 955.9
20260506231006 54 0.0 0.0 0.00 0.00 0.00 71 955.9
20260506230806 54 0.0 0.0 0.00 0.00 0.00 70 955.9
20260506230606 55 0.0 0.0 0.00 0.00 0.00 70 955.9
20260506230206 55 0.0 0.0 0.00 0.00 0.00 68 955.8
20260506230006 56 0.0 0.0 0.00 0.00 0.00 67 955.7
20260506225806 56 0.0 0.0 0.00 0.00 0.00 67 955.7
20260506225606 56 0.0 0.0 0.00 0.00 0.00 66 955.7
20260506225406 56 0.0 0.0 0.00 0.00 0.00 67 955.7
20260506225006 56 0.0 0.0 0.00 0.00 0.00 66 955.8
20260506224806 56 0.0 0.0 0.00 0.00 0.00 66 955.9
20260506224606 56 0.0 0.0 0.00 0.00 0.00 66 955.9
20260506224206 56 0.0 0.0 0.00 0.00 0.00 66 955.8
20260506224006 56 0.0 0.0 0.00 0.00 0.00 65 955.8
20260506223806 56 0.0 0.0 0.00 0.00 0.00 65 955.7
20260506223606 56 0.0 0.0 0.00 0.00 0.00 65 955.8
20260506223406 56 0.0 0.0 0.00 0.00 0.00 65 955.7
20260506223206 56 0.0 0.0 0.00 0.00 0.00 65 955.7
20260506223006 56 0.0 0.0 0.00 0.00 0.00 65 955.7
20260506222806 57 0.0 0.0 0.00 0.00 0.00 65 955.7
20260506222606 57 0.0 0.0 0.00 0.00 0.00 64 955.7
20260506222206 57 0.0 0.0 0.00 0.00 0.00 65 955.6
20260506222006 57 0.0 0.0 0.00 0.00 0.00 64 955.6
20260506221806 57 0.0 0.0 0.00 0.00 0.00 64 955.6
20260506221606 57 0.0 0.0 0.00 0.00 0.00 63 955.6
20260506221406 57 0.0 0.0 0.00 0.00 0.00 63 955.6
20260506221206 57 0.0 0.0 0.00 0.00 0.00 63 955.7
20260506221006 57 0.0 0.0 0.00 0.00 0.00 62 955.6
20260506220806 57 0.0 0.0 0.00 0.00 0.00 62 955.5
20260506220606 57 0.0 0.0 0.00 0.00 0.00 62 955.5
20260506220406 57 0.0 0.0 0.00 0.00 0.00 62 955.5
20260506220206 57 0.0 0.0 0.00 0.00 0.00 62 955.5
20260506220006 57 0.0 0.0 0.00 0.00 0.00 62 955.5
20260506215806 57 0.0 0.0 0.00 0.00 0.00 61 955.5
20260506215606 57 0.0 0.0 0.00 0.00 0.00 61 955.5
20260506215406 57 0.0 0.0 0.00 0.00 0.00 61 955.5
20260506215206 57 0.0 0.0 0.00 0.00 0.00 61 955.6
20260506215006 57 0.0 0.0 0.00 0.00 0.00 61 955.5
20260506214806 57 0.0 0.0 0.00 0.00 0.00 61 955.5
20260506214606 57 0.0 0.0 0.00 0.00 0.00 61 955.5
20260506214406 57 0.0 0.0 0.00 0.00 0.00 61 955.5
20260506213806 57 0.0 0.0 0.00 0.00 0.00 61 955.4
20260506213605 57 0.0 0.0 0.00 0.00 0.00 60 955.4
20260506213206 57 0.0 0.0 0.00 0.00 0.00 60 955.4
20260506212806 57 0.0 0.0 0.00 0.00 0.00 60 955.3
20260506212406 57 0.0 0.0 0.00 0.00 0.00 60 955.3
20260506211606 57 0.0 0.0 0.00 0.00 0.00 60 955.3
20260506211406 58 0.0 0.0 0.00 0.00 0.00 60 955.4
20260506211206 58 0.0 0.0 0.00 0.00 0.00 60 955.3
20260506211006 57 0.0 0.0 0.00 0.00 0.00 60 955.4
20260506210806 57 0.0 0.0 0.00 0.00 0.00 60 955.3
20260506210606 58 0.0 0.0 0.00 0.00 0.00 59 955.3
20260506210406 58 0.0 0.0 0.00 0.00 0.00 59 955.3
20260506210206 58 0.0 0.0 0.00 0.00 0.00 60 955.3
20260506210006 58 0.0 0.0 0.00 0.00 0.00 60 955.3
20260506205606 57 0.0 0.0 0.00 0.00 0.00 60 955.4
20260506205406 57 0.0 0.0 0.00 0.00 0.00 60 955.3
20260506205006 57 0.0 0.0 0.00 0.00 0.00 60 955.2
20260506204606 57 0.0 0.0 0.00 0.00 0.00 60 955.3
20260506204406 57 0.0 0.0 0.00 0.00 0.00 60 955.2
20260506204206 57 0.0 0.0 0.00 0.00 0.00 60 955.2
20260506204006 57 0.0 0.0 0.00 0.00 0.00 60 955.2
20260506203806 57 0.0 0.0 0.00 0.00 0.00 60 955.2
20260506203606 57 0.0 0.0 0.00 0.00 0.00 60 955.2
20260506203206 57 0.0 0.0 0.00 0.00 0.00 60 955.2
20260506203006 57 0.0 0.0 0.00 0.00 0.00 60 955.2
20260506202806 57 0.0 0.0 0.00 0.00 0.00 59 955.2
20260506202606 57 0.0 0.0 0.00 0.00 0.00 59 955.2
20260506202406 57 0.0 0.0 0.00 0.00 0.00 59 955.2
20260506202206 58 0.0 0.0 0.00 0.00 0.00 59 955.3
20260506202006 58 0.0 0.0 0.00 0.00 0.00 59 955.3
20260506201806 58 0.0 0.0 0.00 0.00 0.00 59 955.3
20260506201406 58 0.0 0.0 0.00 0.00 0.00 59 955.2
20260506201206 58 0.0 0.0 0.00 0.00 0.00 59 955.2
20260506200606 58 0.0 0.0 0.00 0.00 0.00 59 955.0
20260506200407 58 0.0 0.0 0.00 0.00 0.00 59 955.0
20260506200205 58 0.0 0.0 0.00 0.00 0.00 59 955.0
20260506200006 58 0.0 0.0 0.00 0.00 0.00 59 955.0
20260506195806 58 0.0 0.0 0.00 0.00 0.00 59 955.0
20260506195606 58 0.0 0.0 0.00 0.00 0.00 59 955.0
20260506195406 58 0.0 0.0 0.00 0.00 0.00 59 954.9
20260506195206 57 0.0 0.0 0.00 0.00 0.00 59 954.9
20260506195006 57 0.0 0.0 0.00 0.00 0.00 59 954.9
20260506194806 57 0.0 0.0 0.00 0.00 0.00 59 955.0
20260506194406 57 0.0 0.0 0.00 0.00 0.00 59 954.9
20260506194206 58 0.0 0.0 0.00 0.00 0.00 59 954.9
20260506194005 58 0.0 0.0 0.00 0.00 0.00 59 954.9
20260506193806 58 0.0 0.0 0.00 0.00 0.00 58 954.8
20260506193606 58 0.0 0.0 0.00 0.00 0.00 59 954.8
20260506193206 58 0.0 0.0 0.00 0.00 0.00 58 954.7
20260506193006 58 0.0 0.0 0.00 0.00 0.00 58 954.6
20260506192606 58 0.0 0.0 0.00 0.00 0.00 59 954.6
20260506191606 58 0.0 0.0 0.00 0.00 0.00 58 954.5
20260506191406 58 0.0 0.0 0.00 0.00 0.00 57 954.5
20260506191206 58 0.0 0.0 0.00 0.00 0.00 58 954.5
20260506191006 58 0.0 0.0 0.00 0.00 0.00 58 954.4
20260506190805 58 0.0 0.0 0.00 0.00 0.00 58 954.4
20260506190606 58 0.0 0.0 0.00 0.00 0.00 59 954.4
20260506190206 58 0.0 0.0 0.00 0.00 0.00 57 954.4
20260506190006 58 0.0 0.0 0.00 0.00 0.00 58 954.4
20260506185805 58 0.0 0.0 0.00 0.00 0.00 57 954.3
20260506185605 58 0.0 0.0 0.00 0.00 0.00 56 954.3
20260506185406 58 0.0 0.0 0.00 0.00 0.00 56 954.2
20260506185006 59 0.0 0.0 0.00 0.00 0.00 57 954.0
20260506184806 59 0.0 0.0 0.00 0.00 0.00 56 954.1
20260506184406 59 0.0 0.0 0.00 0.00 0.00 54 954.0
20260506184205 59 0.0 0.0 0.00 0.00 0.00 54 954.0
20260506184006 60 0.0 0.0 0.00 0.00 0.00 53 954.0
20260506183806 60 0.0 0.0 0.00 0.00 0.00 53 954.0
20260506183606 60 0.0 0.0 0.00 0.00 0.00 52 953.9
20260506183406 60 0.0 0.0 0.00 0.00 0.00 52 953.8
20260506183206 61 0.0 0.0 0.00 0.00 0.00 51 953.7
20260506182806 61 0.0 0.0 0.00 0.00 0.00 50 953.7
20260506182406 62 0.0 0.0 0.00 0.00 0.00 50 953.6
20260506182206 63 0.0 0.0 0.00 0.00 0.00 48 953.6
20260506182005 64 0.0 0.0 0.00 0.00 0.00 48 953.6
20260506181806 64 0.0 0.0 0.00 0.00 0.00 46 953.5
20260506181406 66 0.0 0.0 0.00 0.00 0.00 44 953.4
20260506181006 69 0.0 0.0 0.00 0.00 0.00 43 953.5
20260506180806 71 0.0 0.0 0.00 0.00 0.00 42 953.4
20260506180606 73 0.0 0.0 0.00 0.00 0.00 40 953.5
20260506180406 74 0.0 0.0 0.00 0.00 0.00 40 953.7
20260506180206 74 0.0 0.0 0.00 0.00 0.00 39 953.7
20260506175806 74 0.0 0.0 0.00 0.00 0.00 39 953.6
20260506175606 74 0.0 0.0 0.00 0.00 0.00 41 953.5
20260506175206 73 0.0 0.0 0.00 0.00 0.00 40 953.6
20260506175006 73 0.0 0.0 0.00 0.00 0.00 42 953.6
20260506174806 73 0.0 0.0 0.00 0.00 0.00 42 953.6
20260506174605 72 0.0 0.0 0.00 0.00 0.00 43 953.6
20260506174206 72 0.0 0.0 0.00 0.00 0.00 44 953.5
20260506174006 71 0.0 0.0 0.00 0.00 0.00 45 953.5
20260506173805 70 0.0 0.0 0.00 0.00 0.00 47 953.5
20260506173206 63 0.0 0.0 0.00 0.00 0.00 52 953.6
20260506172806 61 0.0 0.0 0.00 0.00 0.00 53 953.3
20260506172606 61 0.0 0.0 0.00 0.00 0.00 52 953.2
20260506172006 62 0.0 0.0 0.00 0.00 0.00 52 953.3
20260506171805 62 0.0 0.0 0.00 0.00 0.00 53 953.2
20260506171406 62 0.0 0.0 0.00 0.00 0.00 54 953.1
20260506171206 62 0.0 0.0 0.00 0.00 0.00 54 953.1
20260506170806 61 0.0 0.0 0.00 0.00 0.00 56 953.1
20260506170605 61 0.0 0.0 0.00 0.00 0.00 55 953.1
20260506170406 61 0.0 0.0 0.00 0.00 0.00 55 953.0
20260506170206 61 0.0 0.0 0.00 0.00 0.00 56 952.9
20260506165606 60 0.0 0.0 0.00 0.00 0.00 56 952.9
20260506165405 60 0.0 0.0 0.00 0.00 0.00 56 952.9
20260506165206 60 0.0 0.0 0.00 0.00 0.00 56 952.9
20260506165006 60 0.0 0.0 0.00 0.00 0.00 56 952.9
20260506164606 60 0.0 0.0 0.00 0.00 0.00 56 952.8
20260506164406 60 0.0 0.0 0.00 0.00 0.00 56 952.8
20260506164206 60 0.0 0.0 0.00 0.00 0.00 56 952.8
20260506163806 60 0.0 0.0 0.00 0.00 0.00 56 952.7
20260506163606 60 0.0 0.0 0.00 0.00 0.00 56 952.7
20260506163406 60 0.0 0.0 0.00 0.00 0.00 57 952.7
20260506163206 60 0.0 0.0 0.00 0.00 0.00 56 952.7
20260506163006 60 0.0 0.0 0.00 0.00 0.00 57 952.6
20260506162806 60 0.0 0.0 0.00 0.00 0.00 57 952.7
20260506162406 60 0.0 0.0 0.00 0.00 0.00 57 952.7
20260506162206 60 0.0 0.0 0.00 0.00 0.00 58 952.6